Time,TemperatureF,DewpointF,PressureIn,WindDirection,WindDirectionDegrees,WindSpeedMPH,WindSpeedGustMPH,Humidity,HourlyPrecipIn,Conditions,Clouds,dailyrainin,SoftwareType,DateUTC
2013-04-03 00:14:00,29.9,21.0,30.02,North,6,3.0,4.0,69,0.00,,,0.00,weatherlink.com 1.10,2013-04-03 06:14:00,
2013-04-03 00:29:00,28.5,21.0,30.03,NW,322,1.0,4.0,72,0.00,,,0.00,weatherlink.com 1.10,2013-04-03 06:29:00,
2013-04-03 00:44:00,28.0,20.0,30.03,NW,311,3.0,6.0,72,0.00,,,0.00,weatherlink.com 1.10,2013-04-03 06:44:00,
2013-04-03 00:59:00,27.6,20.0,30.03,NW,321,3.0,7.0,72,0.00,,,0.00,weatherlink.com 1.10,2013-04-03 06:59:00,
2013-04-03 01:14:00,26.9,19.0,30.04,NW,322,5.0,6.0,73,0.00,,,0.00,weatherlink.com 1.10,2013-04-03 07:14:00,
2013-04-03 01:29:00,26.8,20.0,30.04,NW,319,1.0,6.0,74,0.00,,,0.00,weatherlink.com 1.10,2013-04-03 07:29:00,
2013-04-03 01:44:00,27.0,19.0,30.04,NW,324,3.0,5.0,73,0.00,,,0.00,weatherlink.com 1.10,2013-04-03 07:44:00,
2013-04-03 01:59:00,26.9,20.0,30.04,West,281,1.0,3.0,75,0.00,,,0.00,weatherlink.com 1.10,2013-04-03 07:59:00,
2013-04-03 02:14:00,27.4,19.0,30.04,North,356,0.0,4.0,72,0.00,,,0.00,weatherlink.com 1.10,2013-04-03 08:14:00,
2013-04-03 02:29:00,27.7,19.0,30.04,WNW,284,0.0,3.0,70,0.00,,,0.00,weatherlink.com 1.10,2013-04-03 08:29:00,
2013-04-03 02:44:00,27.9,19.0,30.04,SSE,153,0.0,7.0,70,0.00,,,0.00,weatherlink.com 1.10,2013-04-03 08:44:00,
2013-04-03 02:59:00,27.0,18.0,30.04,NW,315,1.0,7.0,70,0.00,,,0.00,weatherlink.com 1.10,2013-04-03 08:59:00,
2013-04-03 03:14:00,26.4,19.0,30.05,WSW,238,3.0,4.0,73,0.00,,,0.00,weatherlink.com 1.10,2013-04-03 09:14:00,
2013-04-03 03:29:00,27.3,18.0,30.06,WNW,285,6.0,9.0,67,0.00,,,0.00,weatherlink.com 1.10,2013-04-03 09:29:00,
2013-04-03 03:44:00,27.5,17.0,30.06,West,272,6.0,9.0,66,0.00,,,0.00,weatherlink.com 1.10,2013-04-03 09:44:00,
2013-04-03 03:59:00,27.7,17.0,30.06,WSW,256,8.0,8.0,65,0.00,,,0.00,weatherlink.com 1.10,2013-04-03 09:59:00,
2013-04-03 04:14:00,27.6,17.0,30.06,NNW,332,3.0,12.0,65,0.00,,,0.00,weatherlink.com 1.10,2013-04-03 10:14:00,
2013-04-03 04:29:00,27.1,17.0,30.06,NNW,328,2.0,7.0,66,0.00,,,0.00,weatherlink.com 1.10,2013-04-03 10:29:00,
2013-04-03 04:44:00,27.2,17.0,30.05,WNW,284,3.0,9.0,65,0.00,,,0.00,weatherlink.com 1.10,2013-04-03 10:44:00,
2013-04-03 04:59:00,26.4,17.0,30.06,WNW,302,2.0,4.0,67,0.00,,,0.00,weatherlink.com 1.10,2013-04-03 10:59:00,
2013-04-03 05:14:00,27.0,17.0,30.07,WNW,294,4.0,9.0,65,0.00,,,0.00,weatherlink.com 1.10,2013-04-03 11:14:00,
2013-04-03 05:29:00,26.5,17.0,30.07,NNW,330,1.0,6.0,67,0.00,,,0.00,weatherlink.com 1.10,2013-04-03 11:29:00,
2013-04-03 05:45:00,25.8,17.0,30.07,WNW,287,3.0,7.0,70,0.00,,,0.00,weatherlink.com 1.10,2013-04-03 11:45:00,
2013-04-03 06:00:00,25.4,17.0,30.07,NW,319,1.0,4.0,70,0.00,,,0.00,weatherlink.com 1.10,2013-04-03 12:00:00,
2013-04-03 06:15:00,24.4,17.0,30.08,NE,55,4.0,6.0,73,0.00,,,0.00,weatherlink.com 1.10,2013-04-03 12:15:00,
2013-04-03 06:30:00,24.1,17.0,30.08,North,349,1.0,7.0,73,0.00,,,0.00,weatherlink.com 1.10,2013-04-03 12:30:00,
2013-04-03 06:45:00,23.8,16.0,30.09,West,270,1.0,3.0,73,0.00,,,0.00,weatherlink.com 1.10,2013-04-03 12:45:00,
2013-04-03 07:00:00,24.0,16.0,30.09,NNW,346,0.0,2.0,72,0.00,,,0.00,weatherlink.com 1.10,2013-04-03 13:00:00,
2013-04-03 07:15:00,24.2,18.0,30.10,SSW,212,0.0,1.0,76,0.00,,,0.00,weatherlink.com 1.10,2013-04-03 13:15:00,
2013-04-03 07:30:00,24.7,18.0,30.11,NNW,335,0.0,1.0,75,0.00,,,0.00,weatherlink.com 1.10,2013-04-03 13:30:00,
2013-04-03 07:45:00,27.5,18.0,30.11,North,7,0.0,1.0,68,0.00,,,0.00,weatherlink.com 1.10,2013-04-03 13:45:00,
2013-04-03 08:00:00,28.2,18.0,30.11,NNW,340,2.0,3.0,67,0.00,,,0.00,weatherlink.com 1.10,2013-04-03 14:00:00,
2013-04-03 08:15:00,27.9,19.0,30.11,WNW,288,2.0,4.0,69,0.00,,,0.00,weatherlink.com 1.10,2013-04-03 14:15:00,
2013-04-03 08:30:00,29.6,19.0,30.11,NW,313,5.0,7.0,65,0.00,,,0.00,weatherlink.com 1.10,2013-04-03 14:30:00,
2013-04-03 08:45:00,31.0,20.0,30.11,NNW,342,5.0,6.0,64,0.00,,,0.00,weatherlink.com 1.10,2013-04-03 14:45:00,
2013-04-03 09:00:00,33.2,21.0,30.10,NNW,332,3.0,4.0,61,0.00,,,0.00,weatherlink.com 1.10,2013-04-03 15:00:00,
2013-04-03 09:15:00,33.5,22.0,30.10,ENE,78,2.0,3.0,62,0.00,,,0.00,weatherlink.com 1.10,2013-04-03 15:15:00,
2013-04-03 09:30:00,36.5,22.0,30.09,ENE,77,4.0,4.0,55,0.00,,,0.00,weatherlink.com 1.10,2013-04-03 15:30:00,
2013-04-03 09:45:00,37.9,22.0,30.09,NNE,30,10.0,10.0,53,0.00,,,0.00,weatherlink.com 1.10,2013-04-03 15:45:00,
2013-04-03 10:00:00,37.8,21.0,30.09,NW,325,6.0,13.0,50,0.00,,,0.00,weatherlink.com 1.10,2013-04-03 16:00:00,
2013-04-03 10:15:00,36.2,20.0,30.09,WNW,300,3.0,14.0,52,0.00,,,0.00,weatherlink.com 1.10,2013-04-03 16:15:00,
2013-04-03 10:30:00,38.0,22.0,30.09,NW,319,9.0,12.0,52,0.00,,,0.00,weatherlink.com 1.10,2013-04-03 16:30:00,
2013-04-03 10:45:00,38.0,20.0,30.08,NNW,327,12.0,15.0,49,0.00,,,0.00,weatherlink.com 1.10,2013-04-03 16:45:00,
2013-04-03 11:00:00,38.1,19.0,30.08,NW,316,9.0,15.0,47,0.00,,,0.00,weatherlink.com 1.10,2013-04-03 17:00:00,
2013-04-03 11:15:00,40.6,19.0,30.08,WNW,300,6.0,16.0,42,0.00,,,0.00,weatherlink.com 1.10,2013-04-03 17:15:00,
2013-04-03 11:30:00,40.7,20.0,30.08,NW,311,7.0,15.0,43,0.00,,,0.00,weatherlink.com 1.10,2013-04-03 17:30:00,
2013-04-03 11:45:00,41.9,18.0,30.08,North,4,4.0,14.0,39,0.00,,,0.00,weatherlink.com 1.10,2013-04-03 17:45:00,
2013-04-03 12:00:00,43.6,19.0,30.08,NNW,340,13.0,18.0,38,0.00,,,0.00,weatherlink.com 1.10,2013-04-03 18:00:00,
2013-04-03 12:15:00,43.7,20.0,30.07,NNW,346,4.0,13.0,39,0.00,,,0.00,weatherlink.com 1.10,2013-04-03 18:15:00,
2013-04-03 12:30:00,44.6,19.0,30.07,NNE,25,9.0,15.0,36,0.00,,,0.00,weatherlink.com 1.10,2013-04-03 18:30:00,
2013-04-03 12:45:00,44.6,18.0,30.06,North,358,5.0,12.0,34,0.00,,,0.00,weatherlink.com 1.10,2013-04-03 18:45:00,
2013-04-03 13:01:00,45.3,16.0,30.06,WNW,288,9.0,15.0,31,0.00,,,0.00,weatherlink.com 1.10,2013-04-03 19:01:00,
2013-04-03 13:16:00,44.4,13.0,30.07,ENE,58,8.0,18.0,28,0.00,,,0.00,weatherlink.com 1.10,2013-04-03 19:16:00,
2013-04-03 13:31:00,46.5,13.0,30.06,NW,316,9.0,16.0,26,0.00,,,0.00,weatherlink.com 1.10,2013-04-03 19:31:00,
2013-04-03 13:46:00,46.6,17.0,30.06,NE,48,9.0,11.0,31,0.00,,,0.00,weatherlink.com 1.10,2013-04-03 19:46:00,
2013-04-03 14:01:00,47.1,15.0,30.06,West,278,9.0,17.0,28,0.00,,,0.00,weatherlink.com 1.10,2013-04-03 20:01:00,
2013-04-03 14:16:00,48.2,15.0,30.06,NNW,334,9.0,19.0,27,0.00,,,0.00,weatherlink.com 1.10,2013-04-03 20:16:00,
2013-04-03 14:31:00,48.9,13.0,30.06,WNW,302,8.0,14.0,24,0.00,,,0.00,weatherlink.com 1.10,2013-04-03 20:31:00,
2013-04-03 16:01:00,49.5,12.0,30.06,WNW,287,6.0,16.0,22,0.00,,,0.00,weatherlink.com 1.10,2013-04-03 22:01:00,
2013-04-03 16:16:00,49.3,11.0,30.06,WNW,299,5.0,17.0,21,0.00,,,0.00,weatherlink.com 1.10,2013-04-03 22:16:00,
2013-04-03 16:31:00,49.5,12.0,30.06,NW,305,9.0,16.0,22,0.00,,,0.00,weatherlink.com 1.10,2013-04-03 22:31:00,
2013-04-03 16:46:00,49.7,13.0,30.06,NW,325,10.0,18.0,23,0.00,,,0.00,weatherlink.com 1.10,2013-04-03 22:46:00,
2013-04-03 17:01:00,49.4,15.0,30.06,North,352,9.0,17.0,25,0.00,,,0.00,weatherlink.com 1.10,2013-04-03 23:01:00,
2013-04-03 17:16:00,49.4,14.0,30.06,NW,311,10.0,18.0,24,0.00,,,0.00,weatherlink.com 1.10,2013-04-03 23:16:00,
2013-04-03 17:31:00,48.3,14.0,30.06,NW,322,11.0,15.0,25,0.00,,,0.00,weatherlink.com 1.10,2013-04-03 23:31:00,
2013-04-03 17:46:00,47.3,14.0,30.07,NNW,327,6.0,16.0,26,0.00,,,0.00,weatherlink.com 1.10,2013-04-03 23:46:00,
2013-04-03 18:01:00,46.4,14.0,30.07,WNW,302,11.0,16.0,27,0.00,,,0.00,weatherlink.com 1.10,2013-04-04 00:01:00,
2013-04-03 18:16:00,47.3,16.0,30.07,WNW,291,10.0,14.0,28,0.00,,,0.00,weatherlink.com 1.10,2013-04-04 00:16:00,
2013-04-03 18:46:00,45.9,15.0,30.08,WNW,300,6.0,13.0,29,0.00,,,0.00,weatherlink.com 1.10,2013-04-04 00:46:00,
2013-04-03 19:01:00,43.2,15.0,30.08,WNW,302,2.0,8.0,32,0.00,,,0.00,weatherlink.com 1.10,2013-04-04 01:01:00,
2013-04-03 19:16:00,41.6,15.0,30.09,WNW,291,5.0,5.0,34,0.00,,,0.00,weatherlink.com 1.10,2013-04-04 01:16:00,
2013-04-03 19:46:00,37.3,16.0,30.10,NW,315,3.0,4.0,42,0.00,,,0.00,weatherlink.com 1.10,2013-04-04 01:46:00,
2013-04-03 20:01:00,37.2,17.0,30.10,NNW,333,3.0,6.0,44,0.00,,,0.00,weatherlink.com 1.10,2013-04-04 02:01:00,
2013-04-03 20:16:00,35.5,17.0,30.11,WNW,289,4.0,6.0,48,0.00,,,0.00,weatherlink.com 1.10,2013-04-04 02:16:00,
2013-04-03 20:31:00,34.8,18.0,30.12,NW,315,2.0,7.0,51,0.00,,,0.00,weatherlink.com 1.10,2013-04-04 02:31:00,
2013-04-03 20:46:00,32.5,18.0,30.13,NW,304,3.0,6.0,56,0.00,,,0.00,weatherlink.com 1.10,2013-04-04 02:46:00,
2013-04-03 21:01:00,33.8,18.0,30.14,WNW,285,4.0,8.0,53,0.00,,,0.00,weatherlink.com 1.10,2013-04-04 03:01:00,
2013-04-03 21:31:00,32.1,17.0,30.16,North,352,0.0,0.0,53,0.00,,,0.00,weatherlink.com 1.10,2013-04-04 03:31:00,
2013-04-03 21:46:00,31.1,17.0,30.17,West,263,2.0,5.0,57,0.00,,,0.00,weatherlink.com 1.10,2013-04-04 03:46:00,
2013-04-03 22:01:00,29.9,17.0,30.18,WNW,288,1.0,4.0,60,0.00,,,0.00,weatherlink.com 1.10,2013-04-04 04:01:00,
2013-04-03 22:16:00,30.0,17.0,30.19,NNE,33,0.0,3.0,59,0.00,,,0.00,weatherlink.com 1.10,2013-04-04 04:16:00,
2013-04-03 22:31:00,29.7,17.0,30.20,NNE,26,0.0,2.0,60,0.00,,,0.00,weatherlink.com 1.10,2013-04-04 04:31:00,
2013-04-03 22:47:00,29.2,17.0,30.20,NW,308,3.0,3.0,60,0.00,,,0.00,weatherlink.com 1.10,2013-04-04 04:47:00,
2013-04-03 23:01:00,29.5,17.0,30.21,NNW,348,1.0,4.0,59,0.00,,,0.00,weatherlink.com 1.10,2013-04-04 05:01:00,
2013-04-03 23:32:00,27.6,16.0,30.22,NNE,25,0.0,3.0,62,0.00,,,0.00,weatherlink.com 1.10,2013-04-04 05:32:00,
2013-04-03 23:47:00,27.7,16.0,30.22,West,273,1.0,5.0,63,0.00,,,0.00,weatherlink.com 1.10,2013-04-04 05:47:00,